Weather History for Gwinn, MI

Change the Weather History Date:

Sunday, October 27, 2013

  Actual Average (KESC) Record (KESC)
Temperature  
Mean Temperature 37 °F -  
Max Temperature 42 °F 52 °F 63 °F (1963)
Min Temperature 32 °F 38 °F 24 °F (1997)
Degree Days  
Heating Degree Days 28    
Moisture  
Dew Point 30 °F    
Average Humidity 83    
Maximum Humidity 93    
Minimum Humidity 57    
Precipitation  
Precipitation 0.04 in - - ()
Sea Level Pressure  
Sea Level Pressure 29.91 in    
Wind  
Wind Speed 5 mph (West)    
Max Wind Speed 18 mph    
Max Gust Speed 25 mph    
Visibility 10 miles    
Events Rain , Snow    
Averages and records for this station are not official NWS values.
T = Trace of Precipitation, MM = Missing Value Source: NWS Daily Summary

Daily Weather History Graph

Daily Weather History Graph

Search for Another Location

Airport:

Trip Planner

Search our weather history database for the weather conditions in past years. The results will help you decide how hot, cold, wet, or windy it might be!

Date:

Astronomy

Oct. 27, 2013 Rise Set
Actual Time 8:24 AM EDT 6:42 PM EDT
Civil Twilight 7:52 AM EDT 7:13 PM EDT
Nautical Twilight 7:17 AM EDT 7:48 PM EDT
Astronomical Twilight 6:42 AM EDT 8:23 PM EDT
Moon 12:58 AM EDT (10/27) 3:12 PM EDT (10/27)
Length of Visible Light 11h 20m
Length of Day
10h 18m
Last Quarter, 44% of the Moon is Illuminated
Oct 27
Last Quarter
Nov 3
New
Nov 10
First Quarter
Nov 17
Full
Nov 25
Last Quarter

Hourly Weather History & Observations

Time (EDT) Temp. Windchill Dew Point Humidity Pressure Visibility Wind Dir Wind Speed Gust Speed Precip Events Conditions
12:17 AM 33.4 °F 29.1 °F 29.5 °F 85% 29.93 in 10.0 mi West 4.6 mph - N/A   Mostly Cloudy
12:36 AM 33.1 °F 28.7 °F 29.5 °F 87% 29.94 in 10.0 mi West 4.6 mph - N/A   Mostly Cloudy
12:57 AM 33.3 °F 30.2 °F 29.5 °F 86% 29.93 in 10.0 mi West 3.5 mph - N/A   Overcast
1:16 AM 33.3 °F - 29.3 °F 85% 29.92 in 10.0 mi Calm Calm - N/A   Mostly Cloudy
1:37 AM 33.1 °F - 29.3 °F 86% 29.92 in 10.0 mi Calm Calm - N/A   Mostly Cloudy
1:56 AM 33.3 °F - 29.1 °F 85% 29.92 in 10.0 mi Calm Calm - N/A   Overcast
2:17 AM 32.9 °F - 29.1 °F 86% 29.92 in 10.0 mi Calm Calm - N/A   Overcast
2:36 AM 32.7 °F 29.6 °F 29.3 °F 87% 29.92 in 10.0 mi West 3.5 mph - N/A   Overcast
2:56 AM 33.1 °F 28.7 °F 29.7 °F 87% 29.92 in 10.0 mi WSW 4.6 mph - N/A   Overcast
3:17 AM 32.9 °F - 29.3 °F 87% 29.91 in 10.0 mi Calm Calm - N/A   Overcast
3:36 AM 33.1 °F 30.0 °F 29.3 °F 86% 29.91 in 10.0 mi WSW 3.5 mph - N/A   Overcast
3:57 AM 32.9 °F - 29.1 °F 86% 29.90 in 10.0 mi Calm Calm - N/A   Overcast
4:16 AM 32.9 °F - 28.8 °F 85% 29.90 in 10.0 mi Calm Calm - N/A   Mostly Cloudy
4:36 AM 32.4 °F 29.1 °F 28.4 °F 85% 29.89 in 10.0 mi WSW 3.5 mph - N/A   Scattered Clouds
4:57 AM 32.5 °F 29.3 °F 28.4 °F 85% 29.89 in 10.0 mi WSW 3.5 mph - N/A   Mostly Cloudy
5:16 AM 32.7 °F 28.3 °F 28.4 °F 84% 29.89 in 10.0 mi SW 4.6 mph - N/A   Overcast
5:37 AM 32.0 °F - 28.2 °F 86% 29.88 in 10.0 mi Calm Calm - N/A   Overcast
5:56 AM 32.0 °F 27.5 °F 28.4 °F 87% 29.87 in 10.0 mi SSW 4.6 mph - N/A   Overcast
6:50 AM 32.0 °F 28.7 °F 28.4 °F 87% 29.88 in 10.0 mi SW 3.5 mph - N/A   Overcast
7:47 AM 33.8 °F 29.6 °F 30.2 °F 87% 29.86 in 10.0 mi SW 4.6 mph - N/A   Overcast
8:55 AM 32.0 °F 26.4 °F 30.2 °F 93% 29.86 in 10.0 mi SSW 5.8 mph - N/A   Overcast
9:48 AM 32.0 °F 26.4 °F 30.2 °F 93% 29.86 in 10.0 mi SSW 5.8 mph - N/A   Overcast
10:50 AM 35.6 °F 30.7 °F 32.0 °F 87% 29.84 in 10.0 mi SSW 5.8 mph - N/A   Overcast
11:48 AM 37.4 °F 28.9 °F 30.2 °F 75% 29.83 in 10.0 mi SW 13.8 mph - N/A   Overcast
12:48 PM 39.2 °F 32.5 °F 30.2 °F 70% 29.83 in 10.0 mi WSW 10.4 mph 16.1 mph N/A   Overcast
1:55 PM 41.0 °F 33.9 °F 30.2 °F 65% 29.79 in 10.0 mi WSW 12.7 mph - N/A   Overcast
2:55 PM 42.8 °F 37.5 °F 30.2 °F 61% 29.79 in 10.0 mi WSW 9.2 mph - N/A   Overcast
3:55 PM 42.8 °F 38.6 °F 28.4 °F 57% 29.78 in 10.0 mi West 6.9 mph - N/A   Overcast
4:55 PM 42.8 °F 41.1 °F 30.2 °F 61% 29.81 in 10.0 mi West 3.5 mph - N/A   Overcast
5:55 PM 41.0 °F 39.0 °F 32.0 °F 70% 29.83 in 10.0 mi East 3.5 mph - N/A   Overcast
6:50 PM 41.0 °F 37.1 °F 30.2 °F 65% 29.85 in 10.0 mi NE 5.8 mph - N/A   Overcast
8:50 PM 39.2 °F 35.0 °F 32.0 °F 75% 29.94 in 10.0 mi NNW 5.8 mph - N/A   Light Drizzle
9:50 PM 37.4 °F 29.3 °F 33.8 °F 87% 29.98 in 10.0 mi NNW 12.7 mph 18.4 mph N/A   Overcast
10:16 PM 36.7 °F 29.4 °F 34.2 °F 91% 30.00 in 10.0 mi NNW 10.4 mph 17.3 mph N/A Rain Light Rain
10:37 PM 36.0 °F 26.0 °F 33.6 °F 91% 30.02 in 5.0 mi North 17.3 mph - 0.01 in Rain Light Rain
10:56 PM 34.7 °F 25.5 °F 32.9 °F 93% 30.03 in 7.0 mi North 13.8 mph 18.4 mph 0.02 in Snow Light Snow
11:16 PM 35.4 °F 24.9 °F 32.9 °F 91% 30.05 in 7.0 mi North 18.4 mph - 0.01 in Rain Light Rain
11:36 PM 34.3 °F 24.2 °F 32.4 °F 92% 30.07 in 7.0 mi North 16.1 mph 25.3 mph 0.02 in Rain Light Rain
11:56 PM 34.3 °F 23.5 °F 31.6 °F 90% 30.08 in 7.0 mi North 18.4 mph 25.3 mph 0.02 in Snow Light Snow